AlSat 1N
1 41789U 16059G 17277.84117672 .00000205 00000-0 48089-4 0 9990
2 41789 098.1561 338.7271 0028729 167.5488 192.6701 14.64083338054655
ScatSat
1 41790U 16059H 17277.93468506 .00000043 00000-0 22228-4 0 9994
2 41790 098.2987 324.8312 0018877 150.8996 209.3254 14.50841500054178
TY-1
1 41844U 16066D 17277.86179236 .00002973 00000-0 13140-3 0 9999
2 41844 097.4066 283.3857 0014765 208.4273 236.0786 15.22401330050020
CAS-2T
1 41845U 16066E 17277.93251428 .00000236 00000-0 47418-4 0 9998
2 41845 098.7729 296.1684 0365326 282.6054 073.4506 14.37808602047267
Pegasus-1
1 41846U 16066F 17277.90154466 .00000524 00000-0 91737-4 0 9993
2 41846 098.7773 295.8437 0367895 284.3221 071.7388 14.37139723047234
STARS-C
1 41895U 98067KR 17277.24169045 .00061711 00000-0 51333-3 0 9996
2 41895 51.6356 201.4083 0003081 58.7797 301.3502 15.69531718 45063
Tancredo 1
1 41931U 98067KT 17277.03696950 .00470993 98968-4 12663-2 0 9996
2 41931 51.6270 190.8880 0003967 192.6248 167.4660 15.93811263 40757
TO-89
1 41932U 98067KU 17277.95643456 .00026311 00000-0 28858-3 0 9992
2 41932 051.6399 202.4962 0003266 331.0891 028.9922 15.63041081040680
AOBA-V3LOX3
1 41935U 98067KX 17277.33786963 .00031968 00000-0 33934-3 0 9993
2 41935 51.6392 205.1050 0002706 339.1856 20.9028 15.63771150 40699
OSNSAT
1 41939U 98067KZ 17277.94044387 .00083508 00000-0 58236-3 0 9990
2 41939 051.6350 194.8036 0001254 346.9466 013.1500 15.73603937040142
EO-88
1 42017U 17008BX 17277.94721152 .00003023 00000-0 12978-3 0 9993
2 42017 097.4842 339.1501 0006445 182.3833 177.7374 15.23463582035192
HAVELSAT
1 42700U 98067LH 17277.87900661 .00026629 00000-0 33544-3 0 9991
2 42700 051.6396 208.7031 0005816 029.8261 330.3062 15.59413065022037
SOMP2
1 42701U 98067LJ 17277.89464900 .00024149 00000-0 30929-3 0 9994
2 42701 051.6389 208.8106 0005792 029.6432 330.4888 15.59033517022021
Columbia
1 42702U 98067LK 17277.85311349 .00064590 00000-0 65945-3 0 9999
2 42702 051.6375 207.0252 0004624 043.3936 316.7422 15.64434030021970
PHOENIX
1 42706U 98067LP 17277.88779882 .00026976 00000-0 34236-3 0 9991
2 42706 051.6392 208.7669 0001408 053.0399 307.0722 15.59222064021940
X-CubeSat
1 42707U 98067LQ 17277.88655990 .00026507 00000-0 33507-3 0 9995
2 42707 051.6382 208.7518 0001479 055.5200 304.5932 15.59337494021937
qbee
1 42708U 98067LR 17277.89094927 .00025785 00000-0 32742-3 0 9991
2 42708 051.6381 208.7812 0001443 053.5750 306.5376 15.59234120021894
ZA-AeroSat
1 42713U 98067LU 17277.86307946 .00019211 00000-0 25391-3 0 9991
2 42713 051.6392 209.3482 0000844 335.2700 024.8252 15.58364445021594
LINK
1 42714U 98067LV 17277.88888197 .00033591 00000-0 41242-3 0 9996
2 42714 051.6379 208.7640 0000659 009.7285 350.3720 15.59977237021715
UPSat
1 42716U 98067LX 17277.87407508 .00030677 00000-0 37861-3 0 9994
2 42716 051.6391 208.6712 0004377 040.0696 320.0620 15.59880783021739
SpaceCube
1 42717U 98067LY 17277.90279981 .00024981 00000-0 31915-3 0 9996
2 42717 051.6391 208.8624 0004385 037.7857 322.3443 15.59084937020975
Hoopoe
1 42718U 98067LZ 17277.88831434 .00029100 00000-0 36479-3 0 9999
2 42718 051.6386 208.7660 0004304 037.3211 322.8080 15.59497806020975
Challenger
1 42721U 98067MA 17277.29952484 .00037938 00000-0 45487-3 0 9994
2 42721 051.6375 211.5758 0006072 009.6463 350.4645 15.60522633020582
NJUST-1
1 42722U 98067MB 17277.82504960 .00022180 00000-0 29421-3 0 9999
2 42722 051.6392 209.8405 0006664 007.6964 352.4130 15.58148609020655
UNSW-EC0
1 42723U 98067MC 17277.21356394 .00030096 00000-0 38043-3 0 9994
2 42723 051.6392 212.5093 0006301 007.9076 352.2015 15.59248086020544
DUTHsat
1 42724U 98067MD 17277.88870994 .00037496 00000-0 45324-3 0 9996
2 42724 051.6389 208.7668 0005354 017.7258 342.3921 15.60320364020597
LO-90
1 42725U 98067ME 17277.50172135 .00026363 00000-0 34441-3 0 9997
2 42725 051.6393 211.4336 0005697 012.4715 347.6418 15.58451947020527
nSIGHT1
1 42726U 98067MF 17277.29266430 .00014647 00000-0 20615-3 0 9996
2 42726 051.6397 213.0393 0006202 009.6507 350.4603 15.56887451020476
QBITO
1 42728U 98067MH 17277.41523434 .00025098 00000-0 32284-3 0 9999
2 42728 051.6406 211.6129 0003498 031.1270 328.9929 15.58903942020300
Aalto-2
1 42729U 98067MJ 17277.28693450 .00028731 00000-0 36849-3 0 9999
2 42729 051.6395 212.2499 0003446 030.7672 329.3522 15.58902833020299
SUSat
1 42730U 98067MK 17277.80707321 .00025548 00000-0 33079-3 0 9997
2 42730 051.6391 209.7214 0003425 029.3476 330.7708 15.58719022020373
i-INSPIRE II
1 42731U 98067ML 17277.91161259 .00031155 00000-0 38966-3 0 9995
2 42731 051.6379 208.9095 0005033 311.7617 048.2945 15.59517502020431
PolyITAN-2-SAU
1 42732U 98067MM 17276.96212830 .00027381 00000-0 35022-3 0 9998
2 42732 051.6383 213.8187 0005316 306.9187 053.1319 15.58994261020289
SNUSAT-1
1 42733U 98067MN 17277.29411896 .00025064 00000-0 32461-3 0 9999
2 42733 051.6386 212.2882 0005404 311.4981 048.5547 15.58715495020336
ExAlta-1
1 42734U 98067MP 17277.40065121 .00027231 00000-0 34329-3 0 9992
2 42734 051.6379 211.4988 0007043 338.6296 021.4402 15.59370958020307
Aoxiang-1
1 42735U 98067MQ 17277.88534502 .00021891 00000-0 28949-3 0 9996
2 42735 051.6388 209.4917 0007188 003.6519 356.4525 15.58235095021796
BeEagleSat
1 42736U 98067MR 17277.23874448 .00024952 00000-0 32646-3 0 9992
2 42736 051.6382 212.6737 0007042 000.8910 359.2093 15.58436597020385
Atlantis
1 42737U 98067MS 17277.80716967 .00064300 00000-0 69291-3 0 9994
2 42737 051.6367 208.2094 0005283 010.9118 349.1990 15.63058284020386
CAS-4B
1 42759U 17034B 17277.87279067 .00001014 00000-0 76581-4 0 9999
2 42759 43.0194 44.6432 0008911 309.2642 195.3327 15.09031981 16877
CAS-4A
1 42761U 17034D 17277.86699753 .00001003 00000-0 75715-4 0 9995
2 42761 043.0191 044.6073 0009295 310.3414 192.5249 15.09106489016861
UCLSat
1 42765U 17036A 17277.90058225 .00002305 00000-0 10689-3 0 9993
2 42765 097.4386 336.4285 0010555 247.5037 112.5082 15.21035402016489
NIUSat
1 42766U 17036B 17277.92124049 .00002058 00000-0 99314-4 0 9992
2 42766 097.4390 336.2532 0014965 232.7058 127.2813 15.19728462015752
LituanicaSAT 2
1 42768U 17036D 17277.84245760 .00004078 00000-0 19155-3 0 9997
2 42768 097.4393 336.2027 0014996 236.3059 123.6747 15.20090061015756
InflateSail
1 42770U 17036F 17245.93730135 .99999999 00000-0 73960-1 0 9995
2 42770 097.4262 306.2162 0014869 278.7167 080.9844 16.07641391010932
Aalto 1
1 42775U 17036L 17277.82220155 .00001701 00000-0 81612-4 0 9992
2 42775 097.4388 336.2303 0013108 233.8082 126.1942 15.20189549015695
URSA MAIOR
1 42776U 17036M 17277.81953164 .00001828 00000-0 87365-4 0 9996
2 42776 097.4389 336.2370 0012944 234.1869 125.8164 15.20233659015699
Max Valier Sat
1 42778U 17036P 17277.72733799 .00002056 00000-0 96705-4 0 9990
2 42778 097.4408 336.2282 0011438 239.7834 120.2269 15.20646862015672
Pegasus
1 42784U 17036V 17277.71240578 .00002412 00000-0 11215-3 0 9992
2 42784 097.4391 336.2249 0011058 248.2855 111.7204 15.20891931015672
NUDATSat
1 42787U 17036Y 17277.89961679 .00003345 00000-0 15318-3 0 9990
2 42787 097.4392 336.4329 0010745 247.5117 112.4981 15.21137583015545
SUCHAI 1
1 42788U 17036Z 17277.90254618 .00002718 00000-0 12546-3 0 9994
2 42788 097.4389 336.4278 0010734 247.5965 112.4133 15.21034939015779
SKCUBE
1 42789U 17036AA 17277.90012267 .00002525 00000-0 11669-3 0 9998
2 42789 097.4388 336.4299 0010555 247.5193 112.4925 15.21055379015697
VZLUSAT 1
1 42790U 17036AB 17277.89411364 .00002937 00000-0 13473-3 0 9991
2 42790 097.4387 336.4348 0010297 247.9445 112.0698 15.21180285015698
